Regional Weather Roundup
Issued by NWS Charleston, WV

Home | Current Version | Previous Version | Graphics & Text | Print | Product List | Glossary On
Versions: 1 2 3 4 5 6 7 8 9 10 11 12 13 14 15 16 17 18 19 20 21 22 23 24 25 26 27 28 29 30 31 32 33 34 35 36 37 38 39 40 41 42 43 44 45 46 47 48 49
000
ASUS41 KRLX 291710
RWRRLX
West Virginia Regional Weather Roundup
National Weather Service Charleston WV
100 PM EDT SAT AUG 29 2015

Note: "fair" indicates few or no clouds below 12,000 feet with no
significant weather and/or obstructions to visibility.

WVZ003-291800-
Northern Panhandle of West Virginia

CITY           SKY/WX    TMP DP  RH WIND       PRES   REMARKS
WHEELING       MOSUNNY   80  62  54 CALM      30.18F
$$

WVZ009-291800-
Northwest West Virginia

CITY           SKY/WX    TMP DP  RH WIND       PRES   REMARKS
PARKERSBURG    SUNNY     83  63  50 S8        30.19F
$$

WVZ006-291800-
Western West Virginia

CITY           SKY/WX    TMP DP  RH WIND       PRES   REMARKS
HUNTINGTON     MOSUNNY   82  65  56 CALM      30.18F
$$

WVZ015-291800-
West Central West Virginia

CITY           SKY/WX    TMP DP  RH WIND       PRES   REMARKS
CHARLESTON     MOSUNNY   84  63  49 W3        30.19F
$$

WVZ022-031-291800-
North Central West Virginia

CITY           SKY/WX    TMP DP  RH WIND       PRES   REMARKS
CLARKSBURG     SUNNY     84  61  45 CALM      30.19F
MORGANTOWN     SUNNY     84  57  39 VRB3      30.20F
$$

WVZ025-035-042-045-291800-
Southern West Virginia

CITY           SKY/WX    TMP DP  RH WIND       PRES   REMARKS
BECKLEY        MOSUNNY   78  60  53 W7        30.28F
LOGAN          PTSUNNY   81  64  57 VRB6      30.24F
BLUEFIELD      MOSUNNY   80  59  48 NW6       30.30F
LEWISBURG      MOSUNNY   79  59  49 CALM      30.27F
$$

WVZ047-291800-
Northern Mountains of West Virginia

CITY           SKY/WX    TMP DP  RH WIND       PRES   REMARKS
ELKINS         MOSUNNY   80  58  46 NW7       30.24F
$$

WVZ052-291800-
Eastern Panhandle of West Virginia

CITY           SKY/WX    TMP DP  RH WIND       PRES   REMARKS
MARTINSBURG    MOSUNNY   84  61  45 NW6       30.18F
PETERSBURG     MOSUNNY   85  59  40 NW5       30.18F
$$


USA.gov is the U.S. government's official web portal to all federal, state and local government web resources and services.